Wind_Speed
26 25 25 25 26 26 25 25 25 26 26 24 24 23 24 24 25 25 24 21 19 20 19 17 17 18 19 20 21 20 19 19 20 20 20 19 17 16 16 18 18 17 16 15 15 16 15 16 16 15 12 10 9 9 10 13 16 18 19 19 19 20 20 20 20 20 19 18 18 17 16 15 15 15 15 14 14 14 14 13 13 12 13 13 13
26 25 25 26 27 27 26 26 25 25 25 25 25 25 26 26 27 28 27 26 23 22 23 21 19 19 20 21 22 23 23 23 24 24 23 23 22 21 20 21 21 19 17 16 16 16 16 16 17 16 14 11 10 10 10 12 16 19 21 20 20 21 20 20 21 20 19 19 19 18 17 16 16 15 15 14 13 13 12 11 11 11 12 11 11
26 26 27 28 29 28 27 27 27 26 26 26 26 26 27 27 27 27 28 28 27 25 25 26 24 21 21 22 23 23 24 25 27 28 28 27 26 25 24 23 23 22 20 19 18 18 18 18 18 17 15 13 11 10 10 11 14 18 21 22 21 22 22 21 21 20 19 19 19 19 18 17 16 16 15 14 13 12 11 10 10 11 11 9 9
26 26 27 28 27 25 25 25 26 27 27 27 28 28 28 28 27 26 26 26 26 26 27 28 27 25 23 24 25 25 25 25 26 27 29 31 31 29 28 26 25 25 23 21 20 20 20 19 19 19 17 15 13 12 11 11 13 17 21 23 23 22 23 23 21 21 20 19 20 19 19 18 17 17 16 15 13 12 11 11 12 12 10 8 8
27 27 27 28 26 25 25 24 26 27 27 28 29 29 29 29 28 27 27 26 25 26 27 28 29 29 28 27 27 27 27 27 25 24 25 29 32 33 31 29 27 27 26 23 21 20 20 20 20 20 19 18 16 14 13 12 12 15 20 24 25 24 24 24 23 22 21 20 20 20 20 19 18 17 17 15 14 12 11 12 13 11 9 8 7
27 28 28 28 28 29 29 29 32 32 30 30 30 29 29 29 29 28 29 29 28 29 29 30 31 32 32 31 30 30 30 28 27 25 23 24 29 33 34 33 31 29 28 26 24 21 21 21 21 22 22 20 19 17 15 14 13 14 18 23 26 26 25 25 25 23 22 21 21 21 21 20 19 18 17 16 15 13 12 13 13 11 9 8 7
28 28 28 29 30 32 33 35 38 37 35 34 33 32 31 31 31 30 30 30 31 33 33 32 33 33 34 34 34 34 33 31 29 27 26 25 25 28 32 35 35 33 31 30 27 24 23 22 22 23 23 23 22 20 18 16 15 15 16 20 25 27 26 26 26 25 23 22 22 22 22 21 20 19 18 17 16 14 14 14 13 11 9 7 7
28 28 28 30 31 33 34 37 39 39 37 37 37 35 34 33 33 33 32 31 32 33 34 34 34 34 34 36 37 37 37 35 32 31 30 29 26 26 28 32 36 36 35 33 31 28 27 26 25 24 25 26 25 23 21 19 17 16 17 19 23 28 29 27 26 26 25 24 23 22 22 22 21 20 19 18 17 15 15 15 13 12 10 8 7
28 28 29 30 31 32 33 35 36 37 38 38 37 37 36 35 34 34 34 34 33 33 34 35 34 34 34 35 37 39 39 39 37 35 33 32 30 28 27 29 33 37 38 36 34 31 29 29 29 28 28 28 28 26 24 22 20 19 18 19 21 26 30 30 28 27 26 25 24 23 23 22 22 22 21 20 18 17 17 16 14 12 10 8 7
29 30 30 31 32 33 33 34 35 36 37 37 37 37 37 36 35 35 35 35 35 35 35 35 34 34 34 34 36 38 40 41 41 39 37 36 34 31 30 30 31 35 39 39 37 34 30 29 30 31 30 29 29 29 27 24 23 21 20 20 21 24 28 31 30 29 28 27 26 25 24 23 23 22 22 21 20 18 18 17 15 13 11 9 7
31 32 33 33 33 34 34 34 34 34 35 36 37 38 38 38 37 36 36 35 36 36 36 36 35 35 35 34 35 36 39 41 43 42 41 39 37 35 34 32 30 32 35 38 39 36 32 32 32 33 32 31 30 31 30 28 25 24 22 21 21 22 26 30 32 31 30 28 28 27 26 24 24 23 23 22 21 20 19 18 16 14 12 10 8
33 33 34 34 34 34 34 34 33 33 34 35 36 37 38 39 39 38 37 36 36 36 37 37 37 36 36 35 35 36 37 39 42 44 44 42 41 38 36 34 33 32 33 36 38 37 35 35 35 34 33 32 32 32 32 31 29 26 25 23 22 22 24 28 32 34 32 31 29 28 27 26 25 24 24 23 23 22 21 20 18 16 14 12 10
35 35 36 36 36 36 35 35 34 33 33 33 34 36 38 39 39 39 39 38 37 38 37 37 38 38 37 36 36 36 37 38 40 42 44 45 44 41 39 37 36 34 34 35 37 38 38 38 37 35 34 34 33 31 32 34 32 30 28 26 25 24 24 26 30 34 35 34 32 30 29 28 26 25 25 24 24 24 23 22 21 19 17 15 12
37 38 38 39 40 40 40 39 38 37 35 34 34 35 36 38 39 40 40 40 38 38 39 38 38 39 39 38 37 37 37 38 39 41 43 45 46 45 43 41 39 36 36 36 37 38 40 40 39 37 35 35 34 32 32 34 35 34 31 29 28 26 25 26 28 32 36 36 35 33 31 30 29 27 26 25 25 25 24 24 23 21 19 17 15
39 40 42 43 44 44 44 44 43 41 39 37 35 34 35 36 38 40 41 41 40 40 40 40 39 40 40 40 40 39 38 38 39 39 41 43 45 47 47 46 44 41 39 39 39 39 41 43 42 40 38 36 36 34 32 32 35 36 34 32 30 29 28 27 27 29 33 36 37 36 34 32 31 30 28 27 26 26 26 25 25 23 21 19 17
41 42 44 45 46 47 47 47 47 45 43 40 38 36 35 35 36 38 39 40 41 41 41 42 41 41 42 42 42 41 40 40 39 39 40 41 43 46 48 49 48 47 44 42 41 40 41 44 44 42 41 39 38 37 33 32 34 36 37 37 35 33 32 30 29 29 31 34 37 37 36 35 34 32 31 29 28 27 27 27 26 25 23 21 19
44 44 45 47 48 49 50 51 52 51 49 47 44 41 38 37 36 36 38 39 39 40 42 43 43 43 43 43 43 43 43 42 41 41 40 41 42 44 46 48 50 51 49 46 44 42 42 44 46 44 43 42 41 41 37 34 35 37 40 41 39 36 34 32 30 29 30 32 34 37 37 37 36 35 33 32 30 29 28 28 28 27 26 24 21
47 47 47 49 50 52 53 55 55 55 55 53 51 47 44 41 39 38 38 38 39 39 41 43 44 44 44 44 44 45 45 45 44 44 43 42 42 43 44 47 49 51 52 51 49 46 43 44 47 47 45 45 45 44 41 38 39 40 42 43 42 39 37 35 33 31 31 31 33 35 37 38 37 37 36 34 33 31 30 29 29 28 28 26 23
48 49 49 50 52 54 55 56 57 58 58 57 55 52 48 44 42 40 39 39 39 39 41 42 44 45 45 45 45 46 47 47 47 47 46 44 43 42 44 46 48 49 51 52 52 50 47 44 47 49 48 47 48 47 45 43 42 43 45 45 44 42 40 39 37 34 33 33 33 34 36 37 38 38 38 37 35 34 32 31 30 30 29 28 25
51 51 51 52 53 54 56 58 59 61 61 61 60 57 53 49 45 42 40 39 39 39 40 42 44 45 46 46 46 46 47 48 48 48 49 48 45 43 43 45 47 48 50 52 53 53 51 47 47 50 51 50 51 50 49 48 46 46 47 47 46 44 43 42 40 38 36 34 34 35 35 36 37 37 38 38 37 36 34 33 32 31 30 30 28
54 54 54 54 55 56 58 60 62 64 65 65 64 62 59 54 49 45 42 40 40 40 41 42 43 45 46 47 47 47 48 48 49 49 49 50 49 46 44 44 46 47 48 51 54 55 54 51 49 51 53 54 54 54 52 52 51 49 48 48 47 46 45 44 43 41 39 37 36 35 35 36 37 37 37 38 38 37 36 35 34 33 32 31 30
55 57 57 57 58 58 60 62 64 66 67 68 68 67 64 60 54 48 44 41 40 40 41 42 43 45 46 47 48 48 49 49 50 50 50 50 50 49 47 45 45 46 47 50 54 56 57 55 53 53 55 56 57 57 56 54 52 51 50 49 49 48 46 45 45 44 43 41 38 36 35 35 35 36 36 37 37 38 38 37 35 34 33 33 32
54 59 59 59 60 60 61 63 66 68 69 71 72 71 69 65 60 53 47 43 41 40 41 42 43 44 46 47 49 50 50 50 50 51 51 50 50 51 50 48 47 45 46 49 53 56 59 59 57 56 56 57 58 59 58 56 54 53 52 51 50 49 48 47 47 46 45 44 42 39 37 36 35 35 36 36 37 37 38 38 37 36 35 34 33
53 59 60 60 61 61 61 63 66 69 70 73 74 74 72 69 64 58 50 45 42 41 40 41 43 44 45 47 49 50 51 51 51 51 52 52 51 51 51 51 49 47 46 48 52 56 59 61 61 59 59 59 59 60 58 57 57 56 54 53 52 51 50 49 49 49 48 47 45 42 39 37 36 34 35 35 36 37 37 38 38 38 37 36 35
55 59 61 61 62 62 63 64 67 70 71 74 77 77 75 72 68 63 55 48 43 41 40 40 41 43 44 46 47 49 51 52 52 52 52 52 52 52 52 51 51 50 48 48 51 55 58 61 63 63 62 62 61 61 60 58 58 58 57 55 54 53 52 51 51 51 50 49 48 46 43 40 38 36 35 34 35 36 37 38 38 39 38 37 36
56 60 63 63 63 64 64 65 67 71 73 76 79 78 77 74 70 65 58 50 44 40 38 38 39 41 42 44 46 48 50 51 52 53 54 54 54 54 54 53 52 52 51 50 51 54 56 59 63 66 66 65 63 63 62 59 58 58 59 58 57 56 55 54 53 52 52 52 50 49 47 44 41 39 36 35 34 34 35 37 38 39 39 39 38
58 61 63 64 65 65 65 66 68 72 76 78 80 79 78 78 74 66 59 52 45 39 36 35 36 38 39 41 44 46 48 50 52 53 54 55 55 55 55 55 54 53 53 53 53 53 55 57 62 65 67 68 67 65 64 63 61 59 59 59 59 59 58 57 55 53 53 53 53 52 50 47 45 42 40 37 35 34 34 35 36 38 39 39 39
59 61 63 65 67 66 66 68 70 73 77 80 81 81 81 82 78 67 58 52 46 40 36 34 34 35 36 38 41 43 46 48 50 53 54 56 57 57 57 57 57 56 55 55 55 55 55 56 60 63 66 68 69 68 67 67 65 63 61 60 60 61 62 61 58 55 54 54 54 54 53 50 48 46 43 41 38 36 35 35 35 37 38 39 39
61 62 64 66 68 68 68 70 72 74 79 82 83 84 84 85 80 67 55 51 46 40 36 34 32 32 33 34 36 40 43 45 48 51 54 55 57 58 59 59 58 58 57 57 57 56 56 57 59 62 64 67 70 71 70 70 69 67 64 63 63 63 65 65 62 59 57 55 55 55 55 53 51 49 47 44 42 39 38 36 36 36 36 38 39
62 64 65 66 70 71 69 71 74 76 80 84 85 87 88 85 78 65 53 48 44 39 35 33 32 30 30 30 32 35 39 42 46 49 52 54 56 59 60 60 60 60 60 60 59 58 57 58 59 60 63 66 69 71 73 73 72 70 67 66 65 65 67 68 66 63 60 58 56 55 56 57 54 51 49 47 45 43 41 39 38 37 36 36 38
64 65 66 67 71 72 70 72 76 77 81 85 87 89 89 82 73 62 51 46 42 36 34 33 31 29 29 29 30 33 36 39 42 46 50 53 55 58 60 61 61 61 61 61 62 61 58 58 60 61 62 65 68 70 72 75 76 73 69 68 68 67 68 69 69 66 64 62 60 57 57 58 57 54 51 48 46 45 43 41 40 39 38 37 37
65 66 68 69 72 72 70 73 76 77 81 86 88 90 85 75 67 59 49 43 40 35 33 33 31 30 29 30 31 33 36 37 40 43 46 50 53 56 59 61 62 62 63 63 64 65 62 59 60 61 62 63 67 70 71 74 77 77 73 71 70 69 68 70 71 69 67 66 65 61 58 59 60 57 53 50 47 46 45 43 41 40 39 38 37
66 68 69 70 73 72 71 74 76 77 81 87 88 86 80 70 63 57 48 42 40 36 34 34 32 31 31 31 32 34 37 39 40 42 44 47 49 53 57 60 62 63 64 65 65 66 67 64 61 61 62 63 66 70 72 73 75 77 76 74 73 71 69 70 72 72 70 68 66 64 61 61 61 59 56 52 49 47 46 44 43 42 41 40 39
66 69 70 71 74 72 73 77 78 79 83 87 85 80 77 72 64 58 52 46 42 39 36 35 33 33 32 32 33 35 38 40 41 43 44 45 47 50 53 58 61 63 64 65 66 67 69 68 64 61 61 62 65 69 72 73 74 75 77 77 75 73 71 70 72 73 72 70 68 65 63 63 62 60 57 54 50 48 47 46 44 44 43 42 41
67 70 70 72 74 74 76 78 79 81 84 85 82 77 77 77 66 59 57 52 46 42 38 37 35 34 33 33 35 36 38 40 42 44 46 46 46 48 50 54 58 61 63 65 67 68 69 70 69 65 62 61 65 68 71 74 75 74 76 79 78 76 73 71 72 73 73 72 70 67 65 65 63 61 58 55 52 49 48 47 46 45 45 45 43
69 71 70 73 75 75 77 78 79 82 83 83 81 76 78 78 68 61 59 54 50 46 42 39 36 35 35 35 37 39 40 42 44 45 47 47 47 47 48 51 55 58 61 64 66 68 69 70 71 69 64 62 64 68 71 74 76 74 75 79 80 79 76 73 72 72 73 73 71 68 67 66 65 62 60 57 55 51 49 48 48 47 47 47 46
70 71 70 72 75 75 76 78 80 81 81 81 80 78 80 77 68 62 59 55 52 49 45 41 38 37 37 37 40 43 43 44 46 47 48 48 48 47 47 49 52 56 59 62 65 67 69 71 72 71 68 64 64 67 70 73 77 76 75 78 80 80 78 76 75 74 73 73 72 69 68 68 66 64 61 59 57 54 51 50 49 49 48 48 48
71 71 70 72 74 73 74 78 79 77 79 82 81 81 84 78 69 67 64 60 55 50 46 42 39 37 37 39 44 47 46 47 49 50 49 48 48 47 47 48 51 53 57 60 63 65 68 71 73 73 70 66 64 67 69 73 76 78 76 77 79 81 80 77 76 76 75 73 72 70 69 69 67 64 62 61 59 56 53 51 50 50 49 49 49
72 72 71 72 73 72 73 76 75 74 78 82 81 84 86 82 77 74 70 66 61 53 48 43 39 38 41 46 50 50 49 50 51 51 50 49 48 47 46 48 50 52 54 57 60 63 66 69 72 73 72 68 65 66 69 72 76 78 78 77 78 80 81 79 77 78 76 74 72 71 70 69 67 64 62 61 60 58 55 51 50 49 49 49 49
73 73 74 74 72 71 72 72 70 73 79 81 82 85 87 86 84 81 76 71 66 60 53 48 45 47 50 53 54 52 52 52 51 51 50 50 50 49 48 48 50 51 53 55 57 60 63 66 69 72 73 70 66 66 68 71 76 78 78 78 78 80 81 80 78 78 77 75 73 72 71 70 67 64 62 61 59 58 56 53 50 49 49 49 49
75 75 75 74 71 71 71 68 69 75 79 81 85 88 89 91 91 90 87 83 77 70 63 56 54 54 54 55 55 55 56 55 53 51 50 50 50 50 50 50 50 51 52 53 54 57 60 64 66 68 71 71 68 66 68 71 75 78 78 78 79 80 81 81 80 79 78 77 75 73 72 71 68 65 63 62 60 59 57 54 51 49 49 48 48
77 77 76 73 71 72 70 67 70 76 78 81 87 88 90 94 96 96 97 94 89 82 74 67 61 57 56 58 59 59 60 58 56 53 51 50 50 50 51 51 51 51 51 51 52 54 57 60 63 65 66 68 68 66 67 69 73 77 78 78 79 80 82 82 82 81 80 78 77 75 74 73 70 67 65 63 62 61 58 55 52 50 49 48 46
79 79 76 72 72 73 71 69 72 75 76 82 89 89 89 93 97 98 99 98 94 88 80 74 68 63 62 63 64 64 64 62 59 55 52 51 51 51 51 51 51 51 51 51 51 52 54 57 60 62 63 65 66 66 67 68 71 76 78 78 79 81 82 83 83 82 81 79 78 77 76 75 72 69 67 66 64 62 59 57 53 50 49 47 44
80 79 76 72 72 73 72 72 73 74 79 86 90 89 89 93 98 99 99 99 96 90 82 76 72 68 68 68 68 68 67 65 61 57 53 52 52 51 51 51 51 51 50 50 50 50 51 54 57 58 59 63 65 66 67 68 70 74 78 79 80 81 82 83 84 84 82 80 79 78 78 77 74 72 70 69 67 64 61 58 53 50 49 47 43
78 76 74 72 72 73 74 74 75 77 84 89 89 88 90 95 99 100 100 100 97 89 82 76 73 72 72 72 73 73 72 67 62 58 56 55 53 52 52 51 50 49 49 48 48 48 49 51 53 55 57 60 64 66 67 68 70 74 78 80 81 81 81 84 86 86 84 81 79 78 78 77 75 73 71 70 69 66 64 60 54 51 50 47 44
75 73 71 71 72 73 75 77 78 80 85 89 90 90 93 98 102 102 102 100 95 88 81 77 75 75 75 76 77 78 75 70 64 60 58 57 55 52 52 51 49 48 47 46 45 45 46 48 50 52 54 58 62 65 67 69 70 73 78 81 82 82 82 84 87 88 85 81 78 78 78 76 74 72 70 70 70 68 66 61 55 53 51 47 45
75 73 71 71 70 70 74 79 81 82 86 90 92 93 97 102 104 103 103 99 92 85 80 78 77 77 78 79 80 79 77 72 66 61 59 58 55 53 52 51 50 47 45 44 42 42 44 46 48 50 52 55 60 64 68 70 70 72 76 80 83 83 82 83 87 89 87 82 79 78 79 77 74 71 70 71 70 68 66 61 56 53 52 49 46
77 74 72 71 69 70 77 82 82 85 90 93 94 96 100 104 104 103 102 97 89 84 80 79 79 80 80 80 80 79 76 72 67 62 60 59 56 53 52 52 50 47 44 42 40 40 42 44 47 48 50 52 57 63 67 70 71 72 75 79 82 83 82 83 87 90 89 85 80 78 79 79 75 72 72 72 70 68 65 61 56 54 52 50 48
78 75 73 71 72 75 80 83 84 90 94 97 98 101 104 105 105 103 101 95 88 84 82 82 82 83 83 82 80 78 75 71 67 64 62 60 57 53 52 51 49 46 43 41 39 38 40 42 45 46 47 49 54 60 66 69 70 71 73 77 81 82 82 83 87 91 91 87 82 80 80 80 76 73 74 73 70 68 66 61 57 54 53 52 50
78 77 74 74 76 79 83 87 92 95 98 100 103 105 107 107 106 104 100 93 88 85 84 85 85 85 85 83 80 77 73 69 66 64 63 61 58 53 51 50 49 45 42 40 37 36 38 40 43 44 45 46 51 57 63 67 70 70 72 76 80 82 84 84 87 90 91 87 84 81 81 81 78 75 75 74 71 69 67 63 57 54 54 53 51
80 80 79 78 79 82 88 95 99 100 101 104 106 107 108 108 106 104 99 93 88 86 86 86 87 87 87 84 80 76 72 67 64 64 63 61 58 53 49 49 48 44 41 38 36 35 36 38 40 42 42 44 48 53 59 64 68 70 71 75 79 82 85 86 87 89 89 88 85 83 82 83 80 77 76 76 73 71 69 65 59 56 54 54 52
Wind_Direction
311 310 309 308 307 306 305 304 302 303 304 302 297 293 292 290 287 287 288 288 289 289 288 282 275 273 272 271 272 270 261 256 259 258 253 252 253 250 249 249 250 252 251 253 253 252 253 244 234 234 233 228 219 211 209 209 208 204 202 204 203 200 195 187 181 176 170 167 164 163 161 157 154 152 150 147 143 138 133 130 125 121 116 105 96
307 306 307 306 303 301 300 300 300 302 304 304 300 294 290 288 286 285 285 285 284 282 282 282 276 271 271 269 268 270 269 265 262 259 256 255 253 248 246 244 244 247 250 253 254 249 245 239 235 237 235 231 223 214 210 207 206 205 203 204 205 204 200 193 187 182 177 173 169 167 166 164 161 160 159 156 152 148 144 140 135 129 122 108 96
304 303 304 304 302 299 297 296 297 297 300 302 301 296 291 287 285 282 281 280 279 276 276 279 278 271 267 267 266 265 268 269 267 263 258 256 255 251 247 244 242 242 246 250 251 247 239 232 232 237 240 239 234 226 219 211 207 204 204 205 206 206 204 199 193 189 185 180 175 172 171 171 168 167 167 165 162 159 155 151 144 137 127 112 97
302 302 302 304 306 306 304 302 301 298 297 298 298 296 292 289 287 284 281 277 274 272 273 275 277 274 268 264 264 265 265 266 266 265 259 255 255 254 250 248 246 243 243 246 248 246 239 232 229 232 238 242 242 239 231 223 213 206 204 205 207 208 208 206 201 197 193 188 183 178 176 177 176 175 174 173 172 169 165 159 151 143 132 118 102
303 301 300 299 298 301 305 307 307 302 296 294 294 294 292 290 289 288 284 279 273 271 270 272 273 273 271 266 264 263 264 264 263 263 261 255 253 254 253 251 250 247 245 246 247 246 240 233 229 229 233 236 240 242 239 233 225 214 207 206 207 208 210 211 208 204 200 196 191 185 181 181 181 182 181 180 179 176 173 167 158 150 140 126 112
307 303 300 296 292 291 292 294 297 297 294 292 292 291 290 287 286 285 284 282 278 274 272 272 271 271 270 267 264 262 262 261 261 260 260 257 254 253 252 252 252 251 249 248 247 247 243 236 231 229 230 232 234 236 237 235 231 224 214 209 208 209 210 212 213 210 205 202 199 193 188 185 186 187 187 187 184 183 180 174 166 158 150 139 126
315 309 303 298 293 289 286 286 290 292 292 291 291 291 289 285 282 280 279 279 278 276 273 272 271 269 267 265 263 263 262 259 257 256 258 256 255 254 252 251 251 251 251 250 246 244 243 239 236 232 229 230 232 232 232 231 230 227 222 214 211 210 210 212 214 214 210 207 205 201 195 191 190 190 192 191 189 187 185 180 175 167 162 154 142
326 320 314 307 301 295 291 289 290 292 292 292 291 291 289 285 281 278 275 273 273 273 272 270 268 267 265 263 261 261 261 260 256 253 254 253 252 253 254 251 249 249 250 250 248 246 243 241 240 236 230 228 229 230 230 228 227 226 224 220 214 212 211 211 213 215 213 211 209 208 204 198 194 193 194 194 192 191 189 186 183 176 172 166 158
337 333 328 323 318 312 307 302 299 297 295 293 291 290 288 285 281 277 274 271 269 269 269 269 268 265 263 261 259 258 258 259 257 254 252 252 251 250 253 254 250 247 248 249 249 248 247 244 242 238 232 228 226 227 230 230 227 225 223 221 218 215 213 212 213 214 215 214 212 212 211 208 202 198 196 195 195 194 193 191 190 185 181 180 175
346 343 340 336 331 327 322 317 311 305 299 295 291 288 286 284 281 278 275 272 270 268 268 268 268 267 264 262 259 257 256 256 257 256 253 252 251 249 249 252 252 248 246 247 248 248 246 244 242 239 235 231 227 226 227 231 231 229 226 223 221 218 215 213 213 214 215 216 215 215 216 215 211 205 200 197 196 196 195 196 197 194 192 192 189
352 350 347 344 341 336 331 326 319 312 305 299 295 291 287 285 283 279 276 273 271 269 268 267 268 268 266 264 261 258 257 255 255 256 255 253 251 250 248 249 250 249 246 246 247 246 243 239 237 238 236 232 228 225 225 227 230 231 230 228 225 223 218 215 214 214 215 216 216 217 218 219 217 212 206 201 198 197 198 200 202 203 204 204 202
355 354 353 351 347 343 338 332 327 320 314 307 301 295 290 286 284 281 278 275 273 270 267 266 265 265 265 263 262 260 258 257 255 255 255 254 252 250 248 247 247 248 247 246 245 244 241 237 234 234 235 234 229 226 225 226 227 227 229 229 228 226 224 220 216 215 215 215 216 216 217 218 218 216 212 207 202 200 200 202 205 209 213 214 214
356 356 356 354 352 349 345 341 335 329 322 315 308 301 294 289 285 281 278 275 273 271 269 266 263 263 262 260 260 259 259 258 257 255 254 254 253 251 250 248 246 246 246 246 245 244 240 238 236 232 232 232 231 229 227 226 226 226 226 227 226 226 226 224 221 218 216 215 215 215 216 216 217 216 215 211 207 204 203 204 207 210 215 219 221
354 355 356 356 355 354 351 348 343 337 330 323 316 309 302 295 289 284 280 276 273 271 270 268 265 262 260 258 257 257 258 257 256 255 255 254 252 251 250 250 248 245 245 245 245 244 241 238 237 235 231 229 230 230 229 228 227 227 227 227 226 226 226 226 225 222 219 217 216 215 215 215 215 215 215 214 211 208 207 207 208 211 215 220 223
353 354 355 356 355 355 354 352 349 344 337 330 322 315 308 301 295 288 283 279 275 272 271 269 268 265 262 258 255 253 254 256 255 254 254 254 253 252 250 249 249 246 244 244 245 244 241 237 235 235 233 228 227 229 230 232 233 231 229 229 227 226 226 225 226 226 224 221 219 217 216 215 215 215 214 214 213 212 210 210 211 213 216 219 222
351 352 353 354 354 354 354 352 351 348 344 337 330 322 313 306 299 293 287 281 277 273 271 270 268 267 266 263 258 254 251 251 253 253 254 254 253 252 251 249 248 246 244 244 244 244 241 237 233 233 233 229 225 226 229 233 236 236 232 230 227 225 224 224 224 226 226 225 223 220 219 217 216 215 215 214 214 214 213 212 213 215 218 220 221
349 349 350 351 352 353 353 352 351 350 347 344 339 332 323 313 305 298 292 286 280 275 271 270 268 267 267 266 264 259 254 250 249 250 252 254 254 253 252 250 248 246 246 245 243 242 241 237 232 230 231 230 225 222 224 228 231 234 234 231 228 226 225 224 225 226 226 226 225 223 222 220 219 218 217 216 215 215 216 216 215 216 219 221 221
347 347 347 348 349 351 352 352 351 350 348 346 343 338 331 322 312 304 297 292 286 279 273 270 267 266 265 265 265 263 260 256 251 249 249 250 253 253 252 251 249 247 246 246 245 241 239 237 233 230 229 229 226 222 221 224 226 230 232 231 229 227 225 224 224 226 227 227 225 224 223 222 221 220 219 219 218 217 217 218 218 218 219 220 220
346 346 346 345 347 348 350 350 350 349 348 346 344 341 335 328 319 310 301 295 290 284 277 272 268 266 264 263 262 263 262 260 257 253 250 248 248 251 252 251 249 248 245 245 245 242 238 236 233 231 229 227 225 223 222 222 224 227 229 229 228 226 225 224 223 224 226 227 227 224 222 222 222 222 222 221 221 219 218 219 219 220 220 220 219
346 345 345 344 344 345 347 348 348 348 347 346 345 342 339 333 325 317 307 298 291 286 280 274 270 266 263 261 260 260 260 261 260 257 255 251 246 246 249 251 250 248 246 243 243 242 238 235 232 230 229 227 224 224 225 225 225 226 226 227 228 226 224 224 223 222 223 225 226 226 223 221 221 221 222 223 222 221 220 220 220 221 221 220 219
342 343 343 343 342 343 344 346 347 347 346 346 345 343 340 336 330 322 313 303 294 287 282 276 272 268 264 261 259 257 257 257 258 258 257 255 251 246 244 247 249 248 246 244 242 241 239 235 231 230 229 227 225 225 227 228 227 226 225 226 228 228 225 224 223 223 223 223 224 225 225 223 221 220 221 223 223 223 222 221 221 221 221 220 219
336 340 341 341 341 341 342 344 345 345 345 345 344 343 341 338 333 326 318 309 299 290 284 278 273 269 266 263 260 257 255 254 255 255 256 256 255 251 246 244 245 246 247 245 242 240 239 236 233 231 231 228 226 226 227 229 228 227 225 225 227 228 227 225 224 223 224 224 223 224 224 224 222 221 221 221 223 223 223 222 222 222 222 221 219
332 337 338 339 340 340 341 342 343 343 343 344 344 343 342 340 336 330 321 313 304 294 286 279 274 270 266 264 261 259 257 255 253 252 253 254 255 254 251 247 244 244 244 245 243 240 239 238 235 233 233 231 229 229 229 230 229 229 228 225 225 228 229 227 225 224 224 225 224 223 223 224 223 222 222 222 222 223 223 223 222 222 222 221 219
332 335 337 337 337 338 339 340 341 342 342 342 342 342 341 339 337 333 325 316 307 299 290 281 275 271 266 263 261 260 259 257 254 252 251 251 252 253 253 251 248 245 242 243 243 242 240 239 237 235 233 233 233 231 230 230 230 230 229 227 225 226 228 229 227 225 225 226 225 224 223 223 223 222 222 222 223 223 223 223 222 221 221 220 220
332 334 335 335 335 336 337 337 339 340 341 341 342 341 340 339 337 334 329 320 310 301 293 285 277 273 268 264 261 260 259 257 256 254 252 250 250 251 252 252 250 248 244 241 241 242 241 239 238 237 235 234 234 234 232 230 230 230 230 228 226 225 226 227 227 226 225 226 226 225 223 223 223 223 222 222 223 224 224 224 223 222 221 220 219
331 332 334 334 334 334 335 335 337 338 339 340 341 342 341 339 337 334 331 324 314 303 295 288 280 274 270 266 263 261 259 258 256 255 253 251 250 250 251 252 251 249 247 244 240 240 241 241 240 238 237 236 235 235 233 231 230 230 230 228 227 226 225 225 226 226 226 226 226 226 225 223 223 223 224 223 224 224 225 225 224 224 222 221 220
329 330 331 333 333 332 333 334 334 336 338 340 341 341 341 340 337 333 330 326 317 307 297 291 283 276 271 268 264 262 260 258 257 255 254 252 250 249 250 251 251 250 248 246 243 240 239 240 241 240 238 237 236 235 233 232 231 230 229 227 226 226 225 224 224 225 226 226 226 226 225 225 224 224 224 224 225 226 226 226 225 225 224 223 222
329 329 329 330 331 330 331 332 332 334 337 339 340 340 340 340 337 332 329 326 320 310 301 295 288 280 275 270 266 264 261 259 258 256 254 253 251 249 249 250 251 250 249 247 246 243 240 239 240 241 240 238 236 235 233 232 232 231 228 227 227 226 225 224 223 223 225 227 227 226 226 226 226 225 225 225 225 227 227 227 226 226 226 225 224
329 329 328 328 330 329 329 330 331 332 335 338 339 339 338 338 336 332 328 326 321 312 304 297 292 286 279 274 270 266 264 261 259 257 255 253 251 250 248 248 249 250 251 249 247 245 244 241 239 240 240 239 237 235 234 233 232 232 230 228 228 227 224 224 223 222 224 226 228 227 226 226 226 226 226 226 226 227 227 227 227 226 226 226 226
329 328 327 327 328 328 327 329 331 331 334 337 338 337 337 336 335 331 327 325 321 314 307 300 294 289 284 279 275 270 267 264 262 260 257 254 252 250 249 248 248 249 251 251 250 247 244 243 242 239 239 240 239 236 234 233 233 233 231 230 229 228 225 224 224 223 223 225 227 228 227 226 225 225 226 227 226 226 227 227 227 227 226 226 226
329 327 327 326 327 327 326 328 330 330 333 335 336 336 335 334 334 331 326 326 323 316 310 304 297 294 289 285 282 277 272 268 265 262 260 257 255 252 250 248 248 249 250 252 253 251 246 243 243 241 239 239 240 239 236 234 233 232 231 231 230 229 227 224 224 224 224 225 227 228 228 226 224 224 225 227 227 226 226 227 227 227 226 226 226
327 326 326 325 326 326 325 327 329 329 332 335 336 337 336 334 334 332 327 326 324 318 313 309 302 298 295 291 289 285 280 276 271 267 263 260 257 254 252 249 248 248 249 250 252 253 251 246 243 242 241 239 239 240 238 235 233 232 231 230 231 230 228 225 224 225 225 226 227 229 229 226 223 223 225 226 228 228 227 227 227 227 226 226 226
325 325 324 324 325 325 324 325 327 329 332 335 336 338 338 336 334 333 329 326 326 321 316 313 306 301 299 296 294 291 287 284 279 274 268 263 260 257 254 252 250 249 249 249 250 252 253 251 246 242 241 240 239 239 239 237 234 232 230 230 230 231 229 225 224 225 226 226 227 229 230 227 223 223 225 226 228 229 228 227 227 227 227 227 227
323 323 323 323 324 324 324 326 328 330 332 334 335 336 339 338 334 332 332 329 327 324 319 315 309 304 302 300 299 297 293 289 286 282 276 269 264 259 256 254 252 251 250 250 250 250 252 252 250 245 241 239 239 239 239 238 236 233 230 229 229 230 230 227 225 224 225 226 227 228 228 226 223 223 224 225 228 229 228 227 227 227 227 228 229
321 321 321 322 323 323 325 326 328 330 331 332 333 333 337 339 333 330 331 329 327 324 320 317 312 307 304 303 302 301 297 293 291 287 282 276 270 264 259 256 254 253 252 251 251 250 250 251 251 249 244 239 238 238 238 238 237 234 231 229 228 228 229 229 226 224 225 226 227 227 227 225 223 222 223 224 226 228 228 228 228 227 227 228 230
319 319 319 322 323 324 325 327 328 329 329 330 331 332 337 339 335 329 328 326 325 323 319 316 313 310 306 304 304 303 300 297 295 292 286 281 276 270 264 259 256 254 253 252 252 251 251 251 251 250 246 241 238 237 236 237 237 235 231 229 228 227 228 229 228 226 225 226 226 226 225 224 222 222 222 223 225 227 229 229 229 228 227 228 230
317 318 318 320 322 323 325 327 327 327 328 330 331 332 336 339 339 336 334 329 325 322 320 317 314 312 310 309 309 307 303 301 301 297 291 284 280 275 269 265 260 257 255 253 252 251 251 251 251 250 248 243 239 236 235 235 236 235 232 229 228 227 226 227 228 227 225 224 225 225 224 223 222 221 222 223 224 226 229 230 230 229 229 229 230
316 316 316 318 321 322 325 327 326 326 328 329 330 332 334 338 341 342 341 336 330 324 321 319 316 315 315 316 316 312 306 303 303 301 295 287 282 278 273 269 265 261 258 256 253 252 250 250 250 250 248 244 240 236 233 233 234 234 232 229 228 226 225 225 227 228 226 223 223 223 223 222 221 221 221 222 223 225 227 229 230 230 230 230 230
315 315 315 316 319 322 326 327 325 325 327 329 329 331 333 335 337 339 339 338 335 331 327 324 322 321 320 320 320 316 310 306 304 301 297 291 285 281 277 274 269 265 262 259 256 253 251 249 247 247 248 245 241 236 233 231 231 232 231 229 227 226 224 223 225 226 226 223 222 222 221 220 220 221 221 222 223 225 226 228 230 231 230 230 230
314 314 314 315 318 321 325 325 322 324 327 327 328 330 332 333 335 335 335 335 333 331 328 325 322 321 320 320 320 318 315 311 306 302 298 294 290 285 282 278 274 270 266 262 259 256 253 250 246 245 245 245 242 236 232 229 229 230 230 228 227 225 223 222 223 224 224 223 222 222 221 220 220 220 221 222 223 224 226 228 229 229 230 230 230
314 313 313 314 316 319 321 321 320 323 325 325 327 328 330 332 333 333 333 333 331 329 326 322 319 318 320 321 322 322 320 316 311 305 300 296 293 290 286 283 279 275 271 267 262 258 254 251 247 244 244 244 242 237 232 229 227 228 229 227 226 224 222 220 220 222 223 222 221 220 220 219 219 220 221 221 222 224 225 226 227 228 229 230 230
312 312 312 312 314 316 318 317 318 322 323 323 325 327 328 331 331 331 331 330 329 328 326 323 320 319 322 324 325 325 324 320 315 309 303 298 295 292 289 287 284 280 276 271 266 261 256 252 247 244 242 241 240 237 232 228 225 226 227 226 225 223 221 219 219 220 221 220 220 219 219 218 218 218 219 220 221 223 224 225 226 228 229 229 229
311 311 310 310 312 315 315 315 317 319 320 321 323 325 326 328 328 328 328 328 327 326 324 323 321 321 323 325 326 326 326 323 318 312 307 302 298 294 291 289 286 283 279 275 269 263 258 253 248 243 240 238 237 235 232 228 224 224 225 225 224 223 221 219 218 219 220 219 218 218 218 218 218 218 218 220 221 223 224 225 228 230 229 229 229
310 310 309 310 312 313 314 315 316 316 316 318 321 322 324 325 326 326 326 326 326 324 323 322 321 322 323 324 325 326 325 323 319 314 310 306 301 296 293 291 288 285 281 276 271 266 260 254 249 244 239 236 234 232 231 228 223 222 223 224 224 222 220 218 217 218 219 218 217 217 217 218 218 218 219 221 223 224 224 226 228 229 228 227 228
309 308 308 310 311 312 313 315 314 312 313 317 320 321 322 323 323 324 325 325 325 323 322 321 321 321 323 324 325 325 324 322 318 314 311 308 304 299 295 293 290 286 282 276 272 267 261 256 250 244 238 234 232 230 229 227 222 220 221 222 223 222 219 217 217 217 217 217 217 216 216 217 218 218 219 221 223 223 224 226 227 227 226 226 226
309 307 307 309 311 311 312 314 312 310 311 316 319 320 320 321 322 323 324 325 324 322 321 321 321 321 322 323 324 324 323 320 317 314 312 309 305 300 297 294 291 287 282 277 271 266 261 256 251 244 237 233 231 229 227 226 223 219 219 220 221 221 219 216 216 216 216 216 216 216 216 217 217 218 219 220 221 222 222 224 225 225 225 224 224
308 305 306 308 309 308 310 313 312 310 312 316 318 319 319 320 321 322 324 324 323 321 320 320 320 320 321 321 322 322 321 319 317 314 311 308 304 301 298 295 292 288 284 278 272 265 260 256 251 245 237 232 230 228 227 226 223 219 217 218 220 221 219 216 215 216 216 215 215 216 216 216 216 216 218 219 219 220 221 222 223 223 223 223 222
307 305 305 306 306 306 310 313 312 311 314 317 317 317 318 319 320 321 323 323 321 319 318 319 319 319 319 320 320 320 320 318 317 314 311 307 304 300 298 296 293 290 286 280 272 265 258 254 251 245 238 231 229 227 226 226 224 220 217 217 219 220 219 216 215 216 216 214 214 215 216 216 215 215 217 218 218 218 219 220 222 222 222 222 221
306 304 303 304 305 307 311 312 311 312 315 316 316 316 317 318 319 321 322 321 319 318 317 317 317 317 318 318 319 319 318 317 316 314 311 307 303 300 299 296 294 291 287 280 272 264 257 253 250 246 240 233 229 227 226 225 224 221 217 216 217 219 219 217 215 215 215 214 213 213 214 215 214 214 216 217 216 216 218 220 221 221 220 220 220
306 302 300 301 305 309 312 312 312 314 315 315 315 315 316 317 319 320 320 319 318 317 316 316 316 316 317 317 318 318 317 316 315 313 310 306 303 301 299 297 294 292 287 279 272 264 256 251 248 246 241 235 230 227 225 225 224 222 218 216 216 217 219 218 216 215 215 213 212 213 214 215 214 214 216 217 216 216 217 219 221 220 219 218 219
304 301 299 300 304 309 311 312 313 314 314 314 314 315 316 317 318 319 319 318 317 316 315 315 315 315 315 316 316 316 315 315 314 312 309 305 302 301 299 296 294 291 285 278 271 262 253 247 246 246 242 237 233 229 225 224 224 222 219 216 215 215 217 218 217 216 215 213 212 213 214 215 214 214 216 217 216 216 217 219 220 219 217 218 219
Height
10955 10954 10952 10951 10949 10947 10945 10944 10943 10941 10941 10940 10940 10940 10939 10939 10938 10937 10937 10935 10934 10932 10932 10933 10933 10932 10931 10930 10929 10929 10929 10930 10930 10930 10930 10930 10930 10930 10930 10929 10929 10928 10928 10928 10929 10929 10929 10930 10930 10930 10930 10929 10929 10929 10930 10930 10931 10932 10934 10935 10937 10938 10939 10939 10938 10938 10938 10938 10939 10939 10940 10940 10940 10941 10941 10941 10941 10941 10942 10942 10942 10943 10943 10944 10944
10954 10952 10951 10949 10947 10945 10943 10942 10940 10939 10938 10937 10937 10937 10936 10936 10935 10935 10934 10933 10932 10931 10930 10930 10932 10931 10929 10928 10928 10927 10927 10927 10927 10928 10928 10928 10929 10929 10928 10927 10927 10927 10927 10927 10928 10928 10928 10929 10929 10930 10930 10929 10929 10929 10929 10929 10930 10931 10933 10934 10936 10938 10939 10939 10939 10939 10939 10939 10939 10939 10940 10940 10940 10941 10941 10941 10942 10942 10942 10942 10943 10943 10943 10944 10944
10952 10951 10949 10947 10945 10943 10941 10940 10938 10937 10936 10935 10934 10934 10933 10933 10932 10932 10931 10930 10929 10928 10927 10927 10928 10929 10928 10926 10926 10926 10925 10924 10925 10925 10926 10926 10927 10927 10926 10926 10926 10927 10927 10926 10926 10926 10926 10927 10928 10929 10930 10930 10929 10929 10929 10929 10929 10930 10931 10933 10935 10937 10938 10939 10940 10940 10940 10939 10939 10939 10940 10940 10940 10941 10941 10941 10942 10942 10942 10942 10943 10943 10943 10944 10944
10951 10949 10947 10946 10944 10942 10940 10938 10936 10935 10934 10933 10932 10931 10930 10930 10929 10929 10928 10927 10926 10926 10925 10923 10923 10924 10925 10925 10924 10924 10923 10923 10922 10922 10923 10924 10924 10924 10924 10924 10925 10925 10925 10925 10925 10924 10924 10925 10926 10927 10928 10929 10930 10930 10929 10929 10929 10929 10930 10931 10933 10935 10937 10939 10940 10940 10940 10940 10940 10940 10940 10940 10940 10941 10941 10941 10942 10942 10942 10942 10943 10943 10943 10943 10944
10949 10947 10946 10944 10943 10941 10938 10936 10935 10933 10932 10931 10930 10929 10928 10927 10926 10925 10924 10924 10923 10922 10922 10921 10920 10920 10921 10922 10921 10921 10921 10921 10920 10920 10920 10920 10921 10921 10921 10922 10922 10923 10922 10922 10923 10922 10923 10923 10923 10925 10926 10927 10928 10929 10929 10929 10929 10929 10929 10930 10932 10934 10936 10938 10939 10940 10940 10940 10940 10940 10940 10940 10940 10941 10941 10942 10942 10942 10943 10943 10943 10943 10944 10944 10944
10947 10945 10944 10942 10941 10939 10937 10934 10933 10931 10929 10928 10927 10926 10925 10924 10923 10922 10921 10920 10920 10919 10919 10918 10917 10917 10916 10917 10917 10917 10918 10918 10919 10918 10917 10917 10917 10917 10918 10918 10919 10920 10920 10920 10920 10921 10921 10921 10921 10922 10923 10925 10926 10927 10928 10928 10929 10929 10928 10929 10930 10932 10934 10936 10938 10939 10940 10941 10941 10940 10940 10940 10940 10941 10941 10942 10942 10943 10943 10943 10944 10944 10944 10944 10944
10944 10943 10941 10940 10939 10937 10934 10932 10930 10928 10926 10924 10923 10922 10921 10920 10920 10919 10918 10917 10916 10916 10915 10915 10914 10914 10913 10913 10913 10913 10914 10915 10916 10916 10915 10914 10914 10914 10914 10914 10915 10916 10917 10917 10918 10919 10919 10919 10919 10920 10921 10922 10923 10924 10925 10926 10927 10927 10928 10928 10928 10930 10931 10934 10936 10938 10939 10940 10940 10940 10940 10940 10940 10941 10941 10941 10942 10943 10943 10944 10944 10944 10944 10945 10944
10942 10941 10939 10937 10936 10934 10932 10929 10927 10924 10922 10920 10918 10918 10917 10916 10916 10916 10915 10915 10914 10913 10912 10912 10911 10911 10910 10909 10908 10908 10909 10910 10912 10913 10913 10912 10911 10911 10911 10911 10911 10912 10913 10914 10914 10916 10916 10917 10917 10918 10918 10919 10920 10922 10922 10923 10924 10925 10926 10926 10927 10928 10929 10931 10934 10936 10938 10939 10940 10940 10940 10940 10940 10940 10941 10941 10942 10943 10943 10944 10944 10945 10945 10945 10945
10941 10938 10936 10933 10930 10928 10926 10924 10922 10920 10918 10916 10914 10913 10912 10912 10912 10911 10911 10910 10910 10909 10908 10908 10907 10907 10906 10905 10904 10904 10904 10904 10906 10908 10909 10909 10909 10908 10907 10907 10907 10908 10908 10909 10911 10912 10913 10913 10914 10914 10915 10915 10917 10919 10920 10921 10921 10922 10923 10924 10925 10925 10927 10928 10931 10933 10935 10937 10939 10940 10940 10940 10940 10940 10940 10941 10942 10942 10943 10944 10944 10945 10945 10945 10945
10938 10935 10932 10929 10926 10923 10921 10919 10917 10915 10913 10911 10910 10908 10907 10906 10906 10907 10906 10906 10905 10904 10904 10903 10903 10902 10902 10902 10901 10900 10900 10900 10900 10902 10904 10905 10905 10905 10904 10903 10903 10903 10904 10905 10906 10908 10909 10909 10910 10910 10911 10913 10914 10916 10917 10919 10919 10920 10920 10922 10923 10923 10924 10926 10927 10930 10932 10935 10937 10938 10939 10940 10940 10940 10940 10940 10941 10942 10943 10943 10944 10945 10945 10945 10945
10935 10932 10929 10926 10924 10921 10918 10916 10914 10912 10910 10907 10905 10903 10902 10901 10900 10901 10901 10901 10900 10899 10899 10898 10898 10897 10897 10897 10897 10896 10895 10895 10895 10896 10897 10899 10899 10899 10900 10899 10899 10899 10900 10901 10902 10904 10905 10905 10906 10906 10908 10910 10911 10912 10914 10915 10917 10918 10919 10920 10921 10922 10922 10923 10925 10926 10929 10931 10934 10936 10938 10939 10940 10940 10940 10940 10941 10941 10942 10943 10944 10944 10945 10945 10945
10935 10932 10929 10926 10924 10921 10918 10916 10913 10910 10906 10904 10901 10899 10897 10896 10895 10894 10895 10895 10895 10894 10893 10893 10893 10892 10892 10892 10892 10891 10891 10891 10890 10890 10891 10892 10893 10893 10894 10895 10895 10895 10896 10897 10898 10899 10900 10901 10902 10903 10905 10906 10907 10909 10910 10912 10913 10915 10916 10917 10918 10920 10921 10921 10922 10923 10925 10927 10930 10933 10935 10937 10938 10939 10940 10940 10940 10941 10941 10942 10943 10944 10944 10945 10945
10935 10933 10930 10927 10924 10921 10918 10915 10911 10908 10905 10901 10898 10895 10893 10891 10890 10889 10889 10889 10889 10888 10888 10888 10887 10887 10887 10888 10888 10887 10887 10887 10886 10885 10885 10886 10887 10888 10889 10889 10890 10891 10892 10893 10893 10894 10896 10898 10899 10900 10902 10903 10905 10906 10908 10909 10910 10911 10912 10914 10915 10917 10918 10919 10920 10921 10922 10924 10926 10928 10931 10933 10935 10937 10938 10939 10940 10940 10941 10941 10942 10942 10943 10944 10945
10933 10931 10928 10925 10922 10919 10916 10912 10909 10905 10902 10899 10896 10893 10890 10887 10886 10884 10883 10883 10884 10883 10881 10882 10882 10881 10881 10882 10883 10883 10883 10882 10882 10881 10880 10880 10881 10882 10883 10884 10885 10887 10888 10889 10889 10890 10892 10894 10896 10898 10899 10900 10902 10904 10905 10906 10907 10909 10910 10911 10913 10914 10915 10916 10918 10919 10920 10921 10922 10924 10927 10929 10931 10933 10935 10937 10938 10939 10940 10940 10941 10941 10942 10943 10944
10931 10928 10925 10921 10918 10915 10912 10910 10906 10903 10900 10897 10894 10890 10887 10884 10881 10879 10878 10878 10878 10877 10876 10875 10875 10875 10874 10875 10876 10878 10878 10877 10877 10877 10876 10875 10875 10876 10877 10878 10880 10882 10883 10884 10885 10886 10888 10889 10892 10894 10895 10897 10899 10901 10904 10906 10907 10908 10909 10909 10910 10911 10912 10913 10915 10917 10918 10920 10921 10922 10923 10925 10927 10930 10932 10934 10935 10937 10938 10939 10940 10941 10941 10942 10942
10928 10925 10922 10919 10916 10913 10910 10908 10905 10902 10899 10895 10892 10889 10885 10881 10878 10875 10873 10872 10872 10872 10870 10869 10869 10868 10868 10868 10869 10870 10872 10872 10872 10872 10871 10870 10870 10870 10871 10872 10874 10875 10877 10879 10881 10882 10883 10884 10887 10890 10892 10893 10895 10897 10901 10904 10906 10907 10907 10907 10906 10907 10908 10910 10911 10913 10916 10918 10919 10920 10921 10923 10924 10926 10928 10930 10932 10934 10936 10937 10939 10939 10940 10941 10941
10924 10922 10919 10916 10913 10910 10907 10904 10901 10898 10895 10891 10888 10885 10881 10877 10874 10871 10868 10867 10867 10867 10865 10863 10863 10862 10862 10861 10861 10862 10863 10865 10865 10866 10866 10865 10865 10865 10865 10866 10867 10868 10870 10873 10875 10877 10877 10879 10882 10885 10887 10889 10890 10892 10895 10897 10900 10903 10904 10903 10903 10904 10905 10907 10909 10910 10912 10914 10917 10918 10920 10921 10922 10924 10925 10927 10929 10931 10933 10935 10936 10938 10939 10939 10940
10921 10919 10916 10912 10909 10906 10903 10900 10897 10894 10891 10887 10883 10880 10876 10873 10869 10866 10863 10861 10860 10860 10859 10857 10856 10856 10856 10856 10855 10854 10855 10856 10857 10858 10859 10860 10860 10860 10860 10860 10860 10861 10864 10866 10868 10870 10872 10873 10875 10878 10881 10883 10885 10887 10889 10890 10892 10895 10897 10898 10899 10900 10902 10904 10906 10908 10909 10911 10913 10915 10917 10918 10920 10921 10923 10924 10926 10928 10930 10932 10934 10935 10937 10938 10939
10919 10916 10913 10909 10906 10903 10900 10896 10894 10891 10887 10884 10881 10876 10873 10869 10865 10861 10858 10856 10854 10853 10852 10851 10850 10849 10849 10849 10849 10848 10848 10848 10849 10850 10851 10853 10855 10854 10853 10853 10854 10855 10857 10859 10861 10863 10865 10868 10870 10872 10874 10877 10878 10880 10881 10883 10884 10886 10889 10891 10893 10895 10897 10900 10902 10904 10906 10908 10910 10912 10913 10915 10917 10918 10920 10922 10923 10925 10927 10929 10931 10933 10934 10936 10937
10916 10913 10910 10907 10903 10900 10897 10894 10890 10887 10884 10880 10877 10873 10869 10864 10860 10857 10854 10851 10848 10846 10845 10844 10843 10843 10842 10842 10842 10842 10842 10841 10841 10842 10843 10844 10847 10848 10848 10847 10847 10849 10851 10852 10854 10855 10858 10862 10864 10866 10868 10870 10872 10873 10875 10877 10879 10881 10883 10884 10887 10890 10892 10894 10897 10899 10901 10904 10907 10908 10910 10911 10913 10915 10916 10918 10920 10922 10924 10926 10928 10930 10932 10933 10935
10912 10909 10906 10903 10900 10896 10892 10889 10885 10882 10879 10875 10872 10868 10864 10859 10856 10852 10848 10845 10842 10839 10838 10836 10836 10835 10835 10835 10835 10835 10835 10835 10835 10835 10836 10836 10837 10840 10842 10841 10840 10842 10844 10845 10846 10847 10850 10854 10858 10860 10861 10863 10865 10867 10869 10871 10873 10875 10878 10880 10882 10885 10887 10890 10892 10895 10897 10900 10902 10905 10906 10908 10909 10911 10913 10915 10917 10919 10921 10923 10925 10927 10929 10931 10932
10907 10904 10901 10898 10894 10891 10887 10883 10880 10877 10873 10870 10866 10862 10858 10853 10850 10846 10842 10839 10836 10833 10831 10829 10828 10828 10827 10827 10827 10827 10828 10829 10829 10829 10829 10829 10829 10831 10834 10835 10835 10836 10838 10838 10839 10840 10842 10846 10850 10853 10855 10857 10859 10861 10863 10865 10867 10870 10872 10875 10878 10880 10883 10885 10888 10891 10893 10896 10898 10900 10903 10905 10906 10908 10909 10911 10913 10916 10918 10920 10922 10924 10926 10928 10930
10904 10900 10896 10893 10890 10886 10883 10879 10875 10872 10868 10864 10860 10856 10852 10847 10843 10839 10836 10833 10830 10827 10824 10822 10821 10821 10820 10820 10820 10820 10820 10821 10822 10822 10823 10823 10823 10823 10824 10827 10828 10831 10832 10831 10832 10833 10835 10838 10842 10846 10849 10851 10852 10855 10858 10860 10862 10864 10866 10869 10872 10875 10878 10881 10884 10886 10889 10891 10894 10896 10899 10901 10903 10905 10906 10908 10910 10912 10914 10917 10919 10921 10923 10925 10927
10900 10896 10893 10889 10886 10883 10879 10875 10871 10868 10864 10859 10855 10851 10846 10841 10837 10833 10829 10825 10822 10820 10817 10815 10814 10813 10813 10813 10812 10812 10812 10813 10814 10815 10816 10817 10817 10816 10817 10818 10820 10824 10826 10825 10825 10825 10827 10830 10834 10838 10842 10844 10846 10848 10851 10854 10856 10858 10861 10864 10867 10870 10873 10876 10879 10882 10884 10887 10889 10892 10894 10897 10899 10901 10903 10905 10907 10908 10910 10913 10915 10917 10920 10922 10924
10896 10893 10889 10885 10882 10878 10875 10871 10867 10863 10859 10855 10850 10845 10840 10835 10831 10826 10822 10818 10815 10812 10810 10808 10806 10806 10805 10805 10805 10805 10805 10806 10806 10807 10809 10810 10811 10810 10810 10811 10812 10814 10817 10818 10818 10818 10819 10823 10826 10829 10833 10836 10839 10842 10845 10848 10850 10852 10856 10859 10862 10865 10868 10871 10874 10877 10879 10881 10884 10887 10890 10892 10895 10897 10900 10902 10903 10905 10907 10909 10912 10914 10916 10918 10920
10892 10888 10884 10880 10877 10874 10870 10867 10863 10858 10854 10849 10844 10839 10834 10829 10824 10819 10815 10811 10808 10805 10803 10801 10799 10798 10798 10798 10798 10798 10799 10799 10799 10800 10801 10802 10804 10804 10803 10804 10805 10806 10807 10809 10810 10811 10813 10815 10817 10820 10824 10829 10832 10835 10838 10841 10844 10846 10850 10853 10857 10860 10862 10865 10868 10871 10873 10876 10879 10882 10885 10887 10890 10893 10895 10898 10900 10901 10903 10905 10908 10911 10913 10915 10917
10888 10884 10880 10876 10872 10869 10866 10862 10858 10853 10848 10843 10839 10833 10828 10823 10818 10813 10808 10804 10801 10798 10795 10794 10793 10792 10792 10792 10792 10792 10792 10792 10792 10793 10793 10794 10796 10797 10797 10796 10796 10797 10798 10799 10801 10804 10806 10808 10808 10811 10815 10820 10824 10828 10830 10834 10837 10839 10843 10847 10850 10853 10856 10858 10861 10864 10867 10870 10874 10877 10880 10883 10886 10888 10891 10893 10896 10898 10900 10902 10904 10907 10910 10912 10914
10884 10880 10876 10871 10868 10864 10861 10857 10852 10847 10842 10837 10832 10827 10822 10817 10811 10806 10802 10798 10794 10791 10789 10787 10786 10785 10785 10785 10785 10785 10785 10786 10786 10786 10786 10787 10788 10789 10790 10789 10789 10789 10789 10790 10792 10795 10799 10800 10800 10802 10806 10810 10814 10818 10822 10825 10828 10831 10836 10840 10843 10846 10848 10851 10854 10858 10861 10864 10868 10871 10875 10878 10881 10884 10886 10889 10892 10894 10896 10898 10900 10903 10906 10908 10911
10878 10874 10870 10866 10862 10858 10855 10851 10846 10841 10836 10830 10825 10820 10814 10810 10804 10799 10795 10791 10788 10785 10783 10782 10780 10780 10779 10779 10779 10779 10779 10779 10779 10778 10778 10779 10780 10781 10781 10782 10782 10781 10781 10781 10783 10786 10790 10792 10792 10794 10797 10800 10804 10809 10813 10816 10818 10822 10829 10833 10836 10838 10841 10844 10847 10851 10855 10858 10862 10866 10870 10873 10876 10879 10882 10884 10887 10890 10892 10895 10897 10899 10901 10904 10907
10872 10868 10864 10860 10856 10853 10849 10845 10840 10834 10829 10824 10819 10813 10808 10803 10798 10793 10789 10785 10783 10780 10778 10776 10775 10774 10774 10774 10773 10773 10772 10772 10772 10771 10771 10771 10772 10773 10773 10775 10775 10775 10774 10773 10773 10776 10781 10783 10784 10787 10789 10791 10794 10798 10803 10806 10809 10813 10820 10825 10828 10831 10834 10837 10841 10844 10848 10852 10856 10860 10863 10867 10870 10873 10877 10879 10882 10885 10888 10891 10893 10895 10897 10900 10902
10866 10862 10859 10855 10851 10847 10843 10839 10834 10828 10823 10818 10814 10808 10802 10796 10791 10786 10782 10779 10777 10775 10773 10771 10770 10769 10769 10768 10768 10766 10766 10766 10765 10764 10764 10764 10765 10765 10766 10767 10768 10768 10767 10766 10764 10765 10771 10774 10775 10778 10782 10783 10784 10788 10792 10796 10799 10804 10811 10816 10820 10823 10827 10831 10835 10838 10842 10846 10849 10853 10856 10860 10864 10868 10871 10874 10877 10880 10883 10886 10889 10892 10894 10896 10898
10861 10857 10853 10850 10846 10842 10838 10834 10830 10825 10819 10813 10808 10802 10795 10789 10784 10781 10777 10775 10772 10770 10769 10767 10765 10764 10763 10763 10762 10760 10759 10758 10759 10758 10757 10757 10758 10758 10758 10759 10760 10760 10760 10759 10757 10755 10758 10764 10767 10769 10773 10776 10776 10778 10781 10785 10789 10795 10802 10807 10811 10815 10820 10825 10829 10832 10835 10839 10842 10846 10849 10853 10857 10862 10865 10869 10872 10875 10878 10882 10885 10888 10890 10892 10894
10855 10851 10848 10844 10840 10837 10833 10830 10826 10820 10813 10806 10800 10795 10790 10785 10781 10777 10774 10772 10769 10766 10764 10763 10761 10759 10758 10757 10757 10755 10753 10752 10751 10750 10749 10749 10750 10750 10750 10750 10751 10752 10752 10752 10751 10748 10747 10752 10757 10761 10764 10767 10768 10769 10771 10775 10779 10786 10793 10798 10801 10806 10812 10817 10821 10825 10828 10831 10835 10839 10843 10847 10851 10855 10860 10864 10867 10871 10874 10877 10880 10883 10886 10888 10890
10850 10846 10842 10839 10834 10830 10827 10822 10817 10811 10806 10801 10796 10792 10787 10782 10778 10774 10770 10768 10765 10762 10760 10758 10756 10755 10753 10752 10751 10750 10748 10746 10744 10742 10741 10740 10741 10742 10742 10742 10742 10743 10744 10743 10743 10742 10739 10740 10745 10751 10755 10758 10759 10760 10763 10765 10769 10776 10783 10788 10792 10797 10803 10809 10813 10817 10820 10824 10828 10832 10836 10840 10844 10849 10854 10858 10862 10865 10869 10872 10875 10878 10881 10884 10886
10845 10841 10838 10833 10828 10823 10818 10812 10807 10802 10799 10796 10793 10789 10783 10778 10773 10770 10767 10764 10762 10759 10756 10754 10752 10750 10749 10747 10746 10744 10741 10738 10736 10734 10732 10731 10732 10732 10733 10733 10733 10733 10734 10734 10733 10733 10732 10730 10732 10738 10745 10749 10749 10751 10754 10755 10758 10766 10773 10778 10783 10789 10794 10800 10805 10809 10813 10817 10821 10825 10829 10833 10838 10843 10847 10852 10856 10860 10864 10867 10870 10873 10876 10879 10881
10840 10836 10832 10827 10822 10816 10811 10806 10801 10797 10793 10790 10787 10783 10779 10773 10768 10764 10762 10760 10758 10755 10752 10749 10747 10745 10743 10741 10739 10737 10734 10731 10728 10725 10722 10720 10721 10722 10723 10723 10723 10723 10723 10723 10723 10723 10722 10721 10721 10725 10732 10738 10740 10741 10744 10746 10748 10755 10763 10767 10773 10780 10786 10791 10797 10802 10806 10810 10814 10818 10823 10827 10832 10836 10841 10846 10850 10854 10858 10861 10865 10868 10870 10873 10876
10834 10831 10827 10823 10818 10813 10808 10803 10798 10793 10788 10783 10779 10777 10774 10770 10764 10760 10758 10756 10753 10750 10747 10744 10741 10739 10737 10735 10732 10729 10726 10723 10719 10716 10713 10710 10710 10711 10713 10713 10713 10713 10712 10713 10712 10712 10711 10710 10710 10712 10719 10726 10729 10730 10734 10737 10739 10744 10752 10757 10763 10771 10777 10783 10788 10793 10797 10802 10807 10812 10816 10820 10825 10830 10835 10840 10844 10848 10852 10856 10859 10862 10865 10868 10870
10830 10827 10824 10820 10816 10812 10806 10800 10794 10789 10783 10778 10774 10771 10767 10764 10760 10756 10754 10752 10750 10746 10743 10739 10737 10734 10732 10729 10726 10723 10719 10715 10711 10707 10703 10701 10700 10700 10702 10702 10702 10702 10701 10701 10701 10700 10700 10699 10698 10700 10705 10713 10718 10719 10723 10728 10729 10733 10740 10746 10752 10760 10768 10774 10779 10784 10789 10794 10800 10805 10809 10814 10819 10824 10829 10833 10837 10842 10846 10849 10853 10857 10860 10863 10865
10825 10822 10820 10817 10813 10808 10802 10795 10789 10784 10779 10773 10769 10765 10760 10756 10753 10750 10748 10747 10745 10742 10738 10735 10732 10729 10726 10723 10720 10716 10712 10707 10703 10698 10694 10691 10690 10690 10691 10691 10690 10690 10690 10689 10688 10688 10687 10687 10687 10688 10692 10699 10705 10708 10712 10717 10719 10722 10728 10735 10741 10749 10758 10765 10771 10776 10781 10788 10793 10798 10803 10808 10812 10817 10822 10827 10832 10836 10840 10844 10848 10851 10854 10857 10860
10819 10816 10813 10811 10806 10801 10796 10790 10784 10778 10773 10768 10762 10759 10754 10750 10746 10743 10741 10739 10737 10735 10733 10730 10727 10724 10720 10716 10712 10707 10703 10698 10694 10690 10686 10683 10681 10680 10680 10679 10679 10678 10677 10677 10676 10676 10674 10674 10675 10677 10680 10685 10692 10697 10701 10706 10709 10712 10717 10724 10731 10738 10747 10756 10762 10767 10774 10781 10787 10792 10797 10802 10807 10812 10816 10822 10826 10831 10834 10838 10842 10846 10849 10851 10854
10812 10809 10807 10804 10800 10795 10790 10783 10777 10771 10766 10760 10756 10752 10747 10742 10738 10735 10732 10730 10727 10725 10723 10721 10718 10716 10712 10708 10703 10698 10693 10689 10685 10682 10679 10675 10672 10670 10669 10668 10668 10667 10666 10665 10664 10663 10662 10661 10663 10666 10669 10673 10680 10685 10690 10694 10699 10702 10707 10715 10721 10727 10736 10745 10752 10758 10765 10772 10778 10784 10790 10795 10801 10806 10811 10816 10820 10824 10828 10833 10836 10839 10842 10845 10848
10805 10802 10800 10797 10793 10788 10782 10776 10769 10764 10758 10753 10749 10745 10740 10735 10731 10727 10724 10722 10719 10716 10713 10710 10707 10705 10702 10698 10693 10689 10685 10680 10676 10673 10670 10667 10664 10661 10659 10657 10657 10656 10655 10654 10652 10651 10650 10649 10650 10655 10659 10662 10668 10674 10678 10684 10689 10693 10698 10705 10711 10717 10726 10736 10743 10748 10755 10763 10769 10776 10782 10788 10793 10799 10804 10809 10813 10817 10822 10827 10830 10833 10836 10840 10843
10797 10794 10792 10790 10785 10780 10774 10768 10763 10757 10752 10747 10743 10738 10734 10729 10725 10721 10718 10714 10711 10707 10704 10700 10697 10694 10692 10688 10684 10681 10676 10672 10667 10664 10661 10659 10656 10653 10650 10648 10647 10646 10644 10643 10641 10640 10639 10638 10639 10644 10648 10651 10656 10662 10667 10674 10680 10685 10689 10696 10702 10707 10716 10726 10733 10739 10746 10754 10761 10767 10773 10779 10786 10792 10798 10802 10806 10811 10816 10820 10824 10828 10832 10835 10839
10790 10786 10783 10781 10777 10771 10766 10761 10756 10750 10745 10741 10737 10733 10728 10724 10719 10715 10711 10706 10702 10698 10694 10691 10688 10685 10682 10679 10676 10672 10668 10664 10659 10655 10652 10649 10646 10643 10640 10639 10638 10636 10634 10632 10630 10629 10629 10628 10629 10633 10638 10641 10645 10650 10656 10662 10670 10675 10680 10686 10692 10698 10707 10717 10723 10730 10737 10744 10752 10760 10765 10772 10779 10786 10791 10795 10799 10804 10809 10813 10818 10823 10827 10830 10834
10784 10780 10776 10772 10768 10764 10759 10754 10749 10743 10738 10734 10731 10727 10722 10718 10713 10708 10703 10698 10693 10689 10685 10682 10679 10676 10673 10670 10666 10663 10659 10655 10651 10647 10643 10639 10636 10633 10630 10629 10628 10627 10624 10623 10621 10620 10619 10619 10620 10624 10628 10631 10635 10639 10645 10651 10658 10665 10670 10676 10682 10689 10698 10707 10714 10719 10726 10736 10745 10752 10758 10765 10774 10780 10785 10789 10793 10797 10802 10807 10812 10817 10821 10825 10829
10779 10775 10771 10766 10761 10756 10752 10747 10742 10736 10730 10726 10723 10719 10715 10710 10705 10700 10695 10690 10685 10680 10676 10673 10670 10667 10664 10661 10657 10653 10649 10646 10643 10639 10635 10631 10627 10623 10621 10619 10618 10617 10615 10614 10612 10611 10611 10611 10612 10615 10619 10622 10625 10630 10635 10640 10647 10654 10660 10666 10672 10679 10689 10698 10704 10709 10718 10729 10739 10746 10752 10760 10768 10774 10778 10781 10785 10790 10795 10801 10807 10811 10815 10820 10824
10773 10770 10766 10761 10755 10750 10745 10741 10734 10728 10723 10719 10715 10712 10707 10702 10697 10692 10687 10682 10677 10672 10668 10665 10662 10659 10656 10653 10650 10645 10640 10637 10634 10632 10627 10623 10619 10615 10612 10610 10609 10608 10607 10605 10604 10604 10603 10603 10603 10606 10610 10614 10617 10621 10625 10630 10636 10644 10651 10657 10663 10670 10679 10689 10696 10701 10710 10722 10732 10739 10746 10752 10760 10767 10769 10772 10777 10784 10789 10796 10801 10806 10810 10814 10818
10766 10762 10758 10754 10749 10744 10739 10733 10726 10719 10715 10711 10708 10704 10699 10694 10689 10685 10679 10674 10669 10664 10660 10658 10654 10651 10648 10646 10642 10638 10633 10629 10626 10623 10619 10614 10611 10608 10604 10601 10599 10599 10598 10597 10596 10596 10596 10595 10596 10598 10602 10606 10609 10613 10616 10621 10627 10635 10643 10650 10656 10663 10671 10680 10687 10693 10702 10713 10724 10732 10737 10743 10752 10759 10759 10762 10771 10778 10784 10790 10795 10800 10804 10809 10812
10758 10754 10750 10746 10742 10736 10731 10725 10718 10712 10706 10702 10698 10694 10691 10686 10682 10677 10672 10666 10660 10656 10652 10649 10646 10642 10640 10637 10634 10630 10626 10622 10618 10614 10609 10605 10603 10600 10596 10592 10590 10590 10589 10589 10588 10589 10589 10589 10589 10591 10594 10598 10601 10605 10608 10613 10619 10626 10635 10642 10649 10657 10665 10672 10677 10683 10692 10703 10715 10723 10728 10734 10744 10750 10751 10756 10766 10773 10778 10784 10789 10794 10799 10803 10807
10749 10745 10742 10739 10734 10729 10721 10713 10707 10703 10697 10692 10687 10684 10681 10677 10673 10668 10664 10658 10652 10647 10643 10639 10636 10633 10630 10628 10626 10622 10618 10615 10611 10606 10601 10596 10594 10593 10589 10584 10582 10581 10581 10581 10581 10582 10583 10582 10583 10584 10587 10591 10594 10597 10601 10606 10611 10619 10627 10634 10641 10649 10657 10662 10668 10674 10683 10696 10708 10717 10722 10727 10736 10742 10745 10751 10760 10767 10772 10778 10783 10788 10793 10797 10801
10739 10735 10732 10730 10728 10724 10716 10706 10699 10694 10688 10681 10676 10674 10671 10668 10663 10659 10654 10649 10644 10639 10635 10631 10627 10624 10621 10619 10617 10614 10610 10607 10604 10599 10593 10588 10586 10585 10582 10577 10574 10574 10574 10574 10574 10575 10576 10576 10577 10578 10580 10583 10586 10589 10594 10599 10604 10611 10618 10625 10632 10640 10648 10653 10659 10666 10678 10691 10701 10709 10715 10719 10726 10733 10739 10745 10754 10760 10764 10770 10777 10782 10787 10792 10796